Location: Observatoires du Mont Megantic
(45.4500°N, 71.1500°W)
Time: 08:03:00

N. Korean satellite - Visible Passes

Search period start: 20 March 2018 00:00
Search period end: 30 March 2018 00:00
Orbit: 460 x 512 km, 97.2° (Epoch: 19 March)

Date Brightness Start Highest point End Pass type
(mag) Time Alt. Az. Time Alt. Az. Time Alt. Az.
20 Mar 10.5 06:17:34 10° ENE 06:19:08 12° E 06:20:41 10° ESE visible
21 Mar 10.0 19:38:25 10° SW 19:40:37 15° W 19:42:50 10° NW visible
25 Mar 10.0 19:36:25 10° SW 19:38:45 16° W 19:41:06 10° NW visible
29 Mar 9.9 19:34:22 10° SW 19:36:49 17° W 19:39:17 10° NW visible
